Weather History for Covington, KY

Change the Weather History Date:

Tuesday, October 1, 2013

  Actual Average Record
Temperature  
Mean Temperature 66 °F 61 °F  
Max Temperature 77 °F 72 °F 88 °F (1952)
Min Temperature 55 °F 51 °F 34 °F (1974)
Degree Days  
Heating Degree Days 0 6  
Month to date heating degree days 0 6  
Since 1 July heating degree days 30 64  
Cooling Degree Days 1 2  
Month to date cooling degree days 1 2  
Year to date cooling degree days 1121 1107  
Growing Degree Days 16 (Base 50)    
Moisture  
Dew Point 61 °F    
Average Humidity 82    
Maximum Humidity 100    
Minimum Humidity 64    
Precipitation  
Precipitation 0.00 in 0.09 in 2.47 in (1973)
Month to date precipitation 0.00 0.09  
Year to date precipitation 36.70 32.51  
Snow  
Snow 0.00 in 0.00 in - ()
Month to date snowfall 0.0 0.0  
Since 1 July snowfall 0.0 0.0  
Since 1 September snowfall 0.0 0.0  
Snow Depth 0.00 in    
Sea Level Pressure  
Sea Level Pressure 30.05 in    
Wind  
Wind Speed 6 mph (SSW)    
Max Wind Speed 13 mph    
Max Gust Speed 20 mph    
Visibility 9 miles    
Events      
T = Trace of Precipitation, MM = Missing Value Source: NWS Daily Summary

Daily Weather History Graph

Daily Weather History Graph

Search for Another Location

Airport:

Trip Planner

Search our weather history database for the weather conditions in past years. The results will help you decide how hot, cold, wet, or windy it might be!

Date:

Astronomy

Oct. 01, 2013 Rise Set
Actual Time 7:34 AM EDT 7:20 PM EDT
Civil Twilight 7:08 AM EDT 7:47 PM EDT
Nautical Twilight 6:37 AM EDT 8:18 PM EDT
Astronomical Twilight 6:06 AM EDT 8:49 PM EDT
Moon 4:09 AM EDT (10/1) 5:23 PM EDT (10/1)
Length of Visible Light 12h 39m
Length of Day
11h 46m
Waning Crescent, 12% of the Moon is Illuminated
Oct 1
Waning Crescent
Oct 4
New
Oct 11
First Quarter
Oct 18
Full
Oct 26
Last Quarter

Hourly Weather History & Observations

Time (EDT) Temp. Dew Point Humidity Pressure Visibility Wind Dir Wind Speed Gust Speed Precip Events Conditions
12:52 AM 63.0 °F 60.1 °F 90% 30.01 in 10.0 mi SSW 4.6 mph - N/A   Scattered Clouds
1:52 AM 61.0 °F 60.1 °F 97% 30.02 in 10.0 mi SSW 4.6 mph - N/A   Mostly Cloudy
2:52 AM 61.0 °F 60.1 °F 97% 30.02 in 8.0 mi South 5.8 mph - N/A   Partly Cloudy
3:52 AM 61.0 °F 60.1 °F 97% 30.01 in 8.0 mi SSW 3.5 mph - N/A   Partly Cloudy
4:52 AM 57.0 °F 57.0 °F 100% 30.02 in 5.0 mi South 5.8 mph - N/A   Partly Cloudy
5:52 AM 60.1 °F 59.0 °F 96% 30.04 in 7.0 mi South 6.9 mph - N/A   Clear
6:52 AM 60.1 °F 59.0 °F 96% 30.05 in 7.0 mi SSW 5.8 mph - N/A   Partly Cloudy
7:52 AM 60.1 °F 59.0 °F 96% 30.07 in 6.0 mi SSW 4.6 mph - N/A   Mostly Cloudy
8:52 AM 62.1 °F 61.0 °F 96% 30.09 in 6.0 mi Calm Calm - N/A   Mostly Cloudy
9:52 AM 66.9 °F 63.0 °F 87% 30.09 in 9.0 mi SSW 5.8 mph - N/A   Scattered Clouds
10:52 AM 71.1 °F 63.0 °F 75% 30.09 in 10.0 mi SSW 6.9 mph - N/A   Scattered Clouds
11:52 AM 71.1 °F 62.1 °F 73% 30.08 in 10.0 mi SW 8.1 mph - N/A   Mostly Cloudy
12:52 PM 75.0 °F 63.0 °F 66% 30.07 in 10.0 mi SSW 8.1 mph - N/A   Mostly Cloudy
1:52 PM 75.0 °F 63.0 °F 66% 30.06 in 10.0 mi SW 5.8 mph - N/A   Mostly Cloudy
2:52 PM 75.0 °F 63.0 °F 66% 30.04 in 10.0 mi SSW 8.1 mph - N/A   Mostly Cloudy
3:52 PM 75.9 °F 62.1 °F 62% 30.04 in 10.0 mi SSW 10.4 mph 19.6 mph N/A   Mostly Cloudy
4:52 PM 75.9 °F 63.0 °F 64% 30.03 in 10.0 mi SW 5.8 mph - N/A   Mostly Cloudy
5:52 PM 75.9 °F 62.1 °F 62% 30.02 in 10.0 mi SW 6.9 mph - N/A   Scattered Clouds
6:52 PM 73.0 °F 62.1 °F 68% 30.02 in 10.0 mi SSW 4.6 mph - N/A   Scattered Clouds
7:52 PM 66.9 °F 62.1 °F 84% 30.03 in 10.0 mi SSW 4.6 mph - N/A   Clear
8:52 PM 64.9 °F 61.0 °F 87% 30.04 in 9.0 mi SSW 4.6 mph - N/A   Clear
9:52 PM 62.1 °F 60.1 °F 93% 30.05 in 8.0 mi SSW 4.6 mph - N/A   Clear
10:52 PM 61.0 °F 60.1 °F 97% 30.05 in 8.0 mi South 5.8 mph - N/A   Clear
11:52 PM 62.1 °F 60.1 °F 93% 30.05 in 8.0 mi SSW 5.8 mph - N/A   Clear